SCP
0 0 0 0 0 0 0 0 0 0 0 0 0 0 0 0 0 0 0 0 0 0 0 0 0 0 0 0 0 0 0 0 0 0 0 0 0 0 0 0 0 0 0 0 0 0 0 0 0 0 0 0 0 0
0 0 0 0 0 0 0 0 0 0 0 0 0 0 0 0 0 0 0 0 0 0 0 0 0 0 0 0 0 0 0 0 0 0 0 0 0 0 0 0 0 0 0 0 0 0 0 0 0 0 0 0 0 0
0 0 0 0 0 0 0 0 0 0 0 0 0 0 0 0 0 0 0 0 0 0 0 0 0 0 0 0 0 0 0 0 0 0 0 0 0 0 0 0 0 0 0 0 -0 0 0 0 0 0 0 0 0 0
0 0 0 0 0 0 0 0 0 0 0 0 0 0 0 0 0 0 0 0 0 0 0 0 0 0 0 0 0 -0 0 0 0 0 0 0 0 0 0 0 0 0 0 -0 -0 -0 -0 0 0 0 0 0 0 0
0 0 0 0 0 0 0 0 0 0 0 0 0 0 0 0 0 0 0 0 0 0 0 0 0 0 0 0 0 0 0 -0 0 0 0 0 0 0 0 0 0 0 -0 -0 0 -0 0 0 0 0 0 0 0 0
0 0 0 0 0 0 0 0 0 0 0 0 0 0 0 0 0 0 0 0 0 0 0 0 0 0 0 0 0 0 0 0 0 0 0 0 0 0 -0 -0 0 0 -0 -0 0 0 0 0 0 0 0 0 -0 0
0 0 0 0 0 0 0 0 0 0 0 0 0 0 0 0 0 0 0 0 0 0 0 0 0 0 0 0 0 0 0 0 0 0 0 0 -0 0 -0 -0 0 0 -0 -0 -0 0 0 0 0 0 0 -0 0 0
0 0 0 0 0 0 0 0 0 0 0 0 0 0 0 0 0 0 0 0 0 0 0 0 0 0 0 0 -0 -0 0 0 0 0 0 0 -0 0 -0 0 -0 0 -0 -0 -0 0 0 0 0 0 0 0 0 0
0 0 0 0 0 0 0 0 0 0 0 0 0 0 0 0 0 0 0 0 0 0 0 0 0 0 0 0 0 0 0 0 0 0 0 0 -0 -0 0 0 0 -0 -0 0 0 0 0 0 0 0 0 0 0 -0
0 0 0 0 0 0 0 0 0 0 0 0 0 0 0 0 0 0 0 0 0 0 0 0 0 0 0 0 0 0 0 0 0 0 0 -0 -0 0 0 -0 -0 -0 -0 -0 0 0 0 0 -0 -0 0 0 0 0
0 0 0 0 0 0 0 0 0 0 0 0 0 0 0 0 0 0 0 0 0 0 0 0 0 0 0 0 0 0 0 -0 -0 0 -0 -0 -0 0 -0 -0 -0 -0 -0 -0 -0 0 0 0 -0 -0 0 -0 0 0
0 0 0 0 0 0 0 0 -0 0 0 0 0 0 0 0 0 0 0 0 0 -0 0 0 0 0 0 0 0 0 -0 0 -0 0 -0 -0 0 0 -0 -0 0 -0 -0 -0 -0 -0 0 0 -0 -0 -0 -0 0 0
0 0 0 0 0 0 0 0 0 0 0 0 0 0 0 0 0 0 0 -0 -0 0 0 0 0 0 0 -0 0 0 0 -0 -0 -0 -0 -0 0 0 0 -0 -0 -0 -0 -0 -0 -0 0 -0 -0 -0 -0 -0 0 0
0 0 0 0 0 0 0 0 -0 0 0 0 0 0 0 0 0 0 -0 0 0 -0 0 -0 0 0 -0 0 0 0 0 -0 -0 -0 -0 0 0 -0 -0 -0 -0 -0 -0 -0 -0 -0 -0 -0 -0 -0 -0 0 0 0
-0 -0 0 0 0 0 0 -0 0 0 0 0 0 0 -0 -0 0 0 0 0 0 0 0 0 0 0 0 0 0 0 0 0 0 0 -0 0 0 -0 -0 -0 -0 -0 -0 -0 -0 -0 -0 -0 -0 -0 -0 0 -0 -0
-0 -0 -0 -0 0 0 0 -0 0 0 0 0 0 0 -0 0 -0 -0 0 0 0 0 0 0 0 0 0 -0 0 0 0 0 0 -0 -0 -0 -0 -0 -0 0 -0 -0 -0 -0 -0 0 0 -0 -0 -0 -0 0 0 -0
-0 0 0 -0 -0 -0 -0 0 0 0 0 0 0 -0 -0 0 -0 -0 0 0 0 0 0 0 0 0 0 0 0 -0 -0 -0 -0 -0 -0 -0 -0 -0 -0 -0 -0 -0 -0 -0 -0 0 -0 -0 -0 -0 0 -0 -0 0
0 0 0 0 -0 0 0 0 0 0 0 0 0 -0 -0 0 0 0 0 0 0 0 0 0 0 0 0 -0 0 0 0 0 0 0 -0 -0 -0 -0 -0 -0 -0 -0 -0 -0 -0 -0 0 0 0 0 0 -0 -0 -0
0 0 -0 -0 0 0 0 0 0 0 -0 0 0 0 0 0 0 0 0 0 0 0 0 0 0 0 -0 -0 0 0 0 0 -0 0 -0 0 0 0 0 0 0 -0 -0 -0 -0 -0 -0 -0 0 0 0 0 0 -0
0 -0 -0 0 0 0 0 0 0 0 0 -0 0 0 0 0 0 0 0 0 0 0 0 0 0 -0 -0 0 0 0 -0 0 -0 -0 0 -0 0 0 0 0 0 -0 -0 -0 -0 -0 -0 0 -0 0 0 0 0 0
0 0 -0 0 0 0 0 0 0 0 0 0 0 0 0 0 0 0 0 0 0 0 0 0 0 0 0 0 0 0 0 0 0 0 0 0 0 0 0 0 0 -0 -0 -0 -0 -0 -0 -0 -0 -0 0 0 0 0
0 0 0 0 0 0 0 0 0 0 0 0 0 0 0 0 0 0 0 0 0 0 0 0 0 0 0 0 0 0 0 0 0 0 0 0 0 0 0 -0 0 -0 -0 -0 -0 -0 -0 -0 -0 -0 -0 -0 0 0
0 0 0 0 0 0 0 0 0 0 0 0 0 0 0 0 0 0 0 0 0 0 0 0 0 0 0 0 0 0 0 0 0 0 0 0 0 0 0 0 -0 -0 -0 -0 -0 -0 -0 -0 -0 -0 -0 0 0 0
0 0 0 0 0 0 0 0 0 0 0 0 0 0 0 0 0 0 0 0 0 0 0 0 -0 0 0 0 0 0 0 0 0 0 0 0 0 0 0 -0 -0 -0 -0 -0 0 0 0 -0 -0 -0 -0 -0 -0 -0
0 0 0 0 0 0 0 0 0 0 0 0 0 0 0 0 0 0 0 0 0 0 0 0 -0 -0 -0 0 0 0 0 0 0 0 0 0 0 0 0 0 0 0 0 0 0 0 0 -0 -0 -0 -0 -0 0 0
0 0 -0 0 0 0 0 0 0 0 0 0 0 0 0 0 0 0 0 0 0 0 -0 -0 0 0 0 0 0 0 0 0 0 0 0 0 0 0 0 0 0 0 0 -0 -0 0 0 0 0 -0 -0 -0 -0 -0
0 0 0 0 0 0 0 0 0 0 0 0 0 0 0 0 0 0 0 0 0 0 0 0 0 0 0 0 0 0 0 0 0 0 0 0 0 0 0 0 0 0 -0 0 -0 -0 -0 -0 -0 -0 -0 -0 -0 -0
0 0 0 0 0 0 0 0 0 0 0 0 0 0 0 0 0 0 0 0 0 0 0 0 0 0 0 0 0 0 0 0 0 0 0 0 0 0 0 0 0 0 0 0 -0 -0 -0 -0 -0 -0 -0 -0 -0 -0
0 0 0 0 0 0 0 0 0 0 0 0 0 0 0 0 0 0 0 0 0 0 0 0 0 0 0 0 0 0 0 0 0 0 0 0 0 0 0 0 0 0 0 0 0 -0 -0 -0 0 0 0 -0 -0 -0
0 0 0 0 0 0 0 0 0 0 0 0 0 0 0 0 0 0 0 0 0 0 0 0 0 0 0 0 0 0 0 0 0 0 0 0 0 0 0 0 0 0 0 0 0 0 0 0 0 0 0 0 0 0
0 0 0 0 0 0 0 0 0 0 0 0 0 0 0 0 0 0 0 0 0 0 0 0 0 0 0 0 0 0 0 0 0 0 0 0 0 0 0 0 0 0 0 0 0 0 0 0 0 0 0 0 0 0
0 0 0 0 0 0 0 0 0 0 0 0 0 0 0 0 0 0 0 0 0 0 0 0 0 0 0 0 0 0 0 0 0 0 0 0 0 0 0 0 0 0 0 0 0 0 0 0 0 0 0 0 0 0
0 0 0 0 0 0 0 0 0 0 0 0 0 0 0 0 0 0 0 0 0 0 0 0 0 0 0 0 0 0 0 0 0 0 0 0 0 0 0 0 0 0 0 0 0 0 0 0 0 0 0 0 0 0
Wind_Speed_500mb
40 39 38 37 35 36 34 26 24 23 22 22 22 20 19 20 15 17 17 17 18 13 39 31 26 23 18 11 4 12 19 2 6 5 2 3 3 4 5 5 3 7 3 4 4 5 12 2 4 6 10 28 34 45
44 45 43 36 37 38 27 20 15 13 19 21 22 20 20 21 17 20 24 20 23 27 41 65 65 61 55 44 18 7 7 8 9 2 2 3 4 4 3 4 6 4 6 6 13 11 7 9 22 36 36 33 49 55
37 42 44 38 36 34 26 23 18 14 18 21 18 19 22 23 21 23 25 24 24 26 47 28 24 1 9 17 24 13 10 7 6 13 4 3 4 4 3 4 5 2 5 4 6 3 6 41 54 21 34 50 66 69
40 39 40 41 40 37 38 32 24 18 17 19 21 20 21 25 23 22 26 26 27 15 9 16 9 17 17 26 21 30 36 13 20 11 4 3 3 6 4 4 5 6 6 2 11 17 36 18 44 52 69 74 72 79
42 41 39 43 45 47 37 31 33 23 19 19 22 21 23 24 21 19 24 26 28 14 9 29 63 10 16 47 37 22 20 39 29 6 2 5 7 3 3 2 6 3 4 3 8 23 23 50 62 74 71 73 78 81
42 44 40 38 46 46 42 33 32 24 21 23 23 21 21 26 18 10 8 18 24 22 10 8 17 15 6 17 35 35 35 31 22 6 5 8 7 4 3 5 0 4 11 20 14 45 51 65 69 58 71 81 83 87
38 40 35 34 36 42 39 38 27 33 21 26 25 25 24 21 22 16 8 5 4 3 6 11 11 10 17 13 18 26 32 19 6 6 5 4 8 3 5 5 0 15 32 39 31 40 47 43 66 78 77 78 86 89
35 36 30 27 27 32 33 33 29 32 24 24 25 26 23 19 21 27 28 25 20 8 7 6 7 12 10 5 5 9 10 14 10 7 5 5 6 3 5 2 11 29 42 33 47 51 54 62 64 67 75 83 91 89
37 34 27 21 22 24 28 26 29 22 21 24 31 29 21 15 13 13 12 11 15 15 5 6 4 5 18 3 6 9 12 4 5 4 5 4 3 7 4 3 15 29 31 41 54 53 58 57 62 70 74 89 84 88
35 35 28 27 24 22 24 25 25 22 18 34 35 12 10 7 9 10 2 8 9 9 11 7 8 6 6 9 10 4 10 4 5 6 4 4 4 4 4 5 17 29 36 47 51 56 65 67 67 72 71 85 88 93
37 34 32 30 30 30 31 29 23 24 28 36 16 9 11 18 14 6 7 10 9 6 11 13 21 9 8 8 4 13 5 5 2 2 4 3 3 4 4 10 21 23 32 41 46 53 59 58 64 71 80 88 94 101
38 39 35 32 28 24 20 22 31 31 28 24 15 17 17 9 7 6 6 7 9 7 9 8 13 21 9 17 7 6 4 3 6 15 4 3 3 4 5 14 25 26 34 42 49 55 59 59 61 67 74 85 95 105
37 37 34 28 28 22 22 15 27 38 35 23 9 10 9 9 9 9 9 6 6 9 11 9 6 13 14 18 7 4 2 5 13 4 4 3 11 6 12 24 32 26 33 43 45 50 52 61 56 63 72 82 90 99
41 38 36 32 31 29 26 19 53 48 27 10 12 9 8 8 9 9 5 2 7 8 13 22 7 9 7 3 3 1 3 4 3 2 2 1 2 6 17 23 28 34 37 41 51 42 52 56 57 62 66 78 89 95
38 39 38 37 33 31 27 33 54 51 16 9 9 9 13 16 15 10 17 12 27 27 15 12 10 4 3 4 1 1 3 4 4 5 2 12 3 9 16 20 25 35 40 38 39 45 49 54 55 59 66 74 80 93
34 29 41 41 36 36 31 58 63 40 14 10 11 6 16 6 7 13 26 20 18 26 21 15 4 2 4 4 2 6 2 6 6 5 13 6 3 8 12 16 24 30 38 45 51 56 49 54 55 60 61 74 82 87
26 33 31 27 36 32 57 70 32 15 11 9 10 25 24 6 10 18 19 31 19 14 5 6 6 4 2 3 2 6 8 6 16 19 10 7 17 16 12 14 24 32 38 37 44 55 52 55 54 61 69 74 79 86
38 33 25 15 45 74 60 25 17 14 10 14 9 17 23 17 12 12 12 26 10 11 5 4 12 2 5 5 5 5 6 19 15 8 18 19 14 11 11 16 25 28 33 36 36 45 53 62 62 60 63 65 72 89
38 31 18 42 50 44 13 15 12 10 19 9 24 17 17 13 21 22 21 14 17 24 11 4 4 6 6 7 6 18 30 22 20 23 18 12 8 9 13 9 18 25 29 32 40 44 48 56 57 49 56 61 65 73
29 21 40 67 57 12 9 8 14 8 10 12 13 15 18 12 14 24 24 27 15 16 2 4 6 6 7 10 18 24 26 21 27 18 13 11 7 8 13 14 21 23 26 29 37 43 51 58 59 48 50 56 60 63
35 73 70 56 19 9 6 11 12 10 8 12 11 16 8 16 11 15 19 18 6 3 5 6 12 17 21 24 20 23 28 28 22 25 27 26 18 11 13 14 18 26 32 36 41 43 48 55 59 50 46 50 54 61
64 67 45 27 5 6 5 12 6 5 7 5 20 15 6 5 8 16 18 11 7 7 12 27 32 32 29 22 28 39 29 20 18 23 30 31 24 17 18 19 20 27 32 35 39 39 43 49 56 55 54 49 50 58
69 47 14 6 4 7 6 15 7 7 4 10 14 4 5 8 10 15 6 5 5 12 25 35 30 25 25 37 37 27 17 14 21 28 30 26 22 19 19 21 22 26 31 31 32 34 39 45 53 58 61 59 57 63
40 14 8 14 10 8 9 9 8 7 6 5 5 4 4 7 15 4 2 5 13 37 43 38 35 36 35 34 24 19 29 20 24 27 24 18 19 18 16 20 23 25 30 28 26 32 37 43 47 53 57 61 62 59
12 10 10 8 10 9 7 8 7 5 5 7 7 3 3 5 4 6 6 9 39 44 39 37 33 26 38 36 27 32 26 14 15 20 21 10 8 10 10 14 18 22 26 28 33 33 38 39 44 48 51 53 56 58
7 11 13 16 9 7 7 8 9 7 5 5 4 7 5 3 3 1 4 19 35 44 42 42 38 35 38 29 26 22 28 20 10 8 17 8 1 6 7 6 10 18 27 31 32 34 34 38 40 44 48 51 51 51
6 8 11 12 7 9 5 5 12 4 5 5 6 4 5 5 4 2 6 5 36 37 30 25 28 38 32 28 23 27 25 16 8 12 21 10 1 5 6 8 12 16 22 26 30 36 39 40 42 43 44 44 45 47
4 9 8 11 7 3 5 5 3 4 3 4 4 4 5 4 3 8 5 12 36 36 34 30 34 31 37 33 27 29 25 18 19 22 18 13 8 7 11 16 17 18 23 27 31 36 38 41 41 42 42 43 43 43
4 14 14 6 3 4 2 3 4 6 6 7 5 4 6 8 14 16 23 27 21 26 32 31 37 48 44 35 28 21 12 12 18 22 17 15 12 5 5 15 21 25 27 28 31 35 37 39 39 39 38 37 37 38
6 13 6 6 3 2 6 4 5 8 14 19 19 29 31 24 28 24 29 33 36 36 39 42 50 41 30 24 20 18 22 21 21 17 17 16 11 7 9 17 21 22 23 24 27 30 32 34 34 32 31 31 31 31
13 7 6 8 7 16 28 37 33 32 26 26 40 45 29 25 36 28 26 28 30 31 36 40 36 24 19 18 13 9 14 14 11 12 8 6 5 9 13 17 20 21 21 23 26 29 33 34 33 32 31 31 32 33
7 5 9 6 7 15 21 19 16 14 13 18 14 16 18 15 13 14 20 27 33 31 28 25 24 25 23 19 15 12 13 16 12 5 3 9 16 19 19 19 18 18 20 23 26 29 30 31 31 30 29 29 30 31
14 25 21 10 6 6 8 11 9 8 12 9 11 16 16 10 9 7 12 12 20 21 22 24 28 31 27 21 17 17 15 10 3 7 9 10 11 13 14 15 16 17 19 22 23 25 28 29 28 27 26 26 27 28
Wind_Direction_500mb
279 277 278 279 281 284 286 286 285 280 283 280 274 266 255 262 258 249 285 255 257 247 289 267 265 258 231 204 248 315 318 330 326 42 323 318 287 303 347 292 260 164 196 250 230 257 279 164 308 151 254 296 309 306
278 278 277 276 275 278 278 278 292 285 290 283 273 257 252 256 260 249 264 273 254 258 274 295 289 262 248 251 249 257 275 305 275 316 351 303 323 344 145 295 6 159 206 211 191 228 239 241 266 287 288 303 303 297
285 281 271 266 264 268 266 268 279 288 304 301 283 256 252 251 258 250 261 275 258 279 299 295 297 285 260 244 234 224 257 231 33 356 286 255 273 124 276 268 306 311 28 251 1 318 244 304 309 307 303 300 300 298
285 295 275 257 255 259 267 272 268 270 282 288 292 259 249 250 255 242 261 272 263 280 280 285 270 282 230 233 256 267 238 221 323 312 272 268 223 200 252 285 223 228 359 303 270 294 317 274 317 308 304 305 303 302
284 291 291 260 249 249 262 272 277 257 272 272 282 265 243 244 256 254 269 261 259 263 286 293 304 10 246 237 229 255 250 256 279 281 223 245 248 232 311 311 252 204 233 247 278 321 307 291 303 309 306 305 304 308
283 288 289 279 251 248 256 257 262 249 266 277 277 253 239 232 231 251 271 255 253 260 293 295 309 315 355 171 218 243 252 247 238 249 249 269 287 281 276 266 260 53 329 317 288 307 300 297 302 310 307 310 309 308
281 288 291 286 260 243 246 245 261 262 259 282 256 235 228 234 227 218 219 266 222 312 263 293 290 287 296 279 227 230 237 209 215 245 249 251 286 246 243 234 13 336 332 334 333 322 309 313 309 316 312 314 315 311
277 288 287 283 269 242 244 241 249 257 259 265 229 215 216 228 225 248 257 260 256 225 235 274 276 303 12 241 158 157 161 198 218 210 249 235 271 205 258 286 350 343 345 348 334 326 310 311 313 317 322 321 317 315
269 277 282 270 264 247 242 246 252 250 244 231 204 208 212 216 228 248 271 246 245 222 241 244 266 283 333 285 155 166 193 185 203 210 235 149 221 229 215 355 349 351 339 324 332 330 329 327 326 326 329 326 322 322
268 267 269 258 258 256 250 243 246 230 244 204 189 178 208 207 178 179 179 173 212 225 229 245 236 260 343 309 196 240 183 198 196 219 214 220 244 130 163 345 345 338 333 340 333 336 337 334 333 330 330 328 327 330
267 267 259 254 255 248 251 246 237 220 206 187 196 198 172 145 159 199 236 197 187 245 228 237 216 229 247 216 256 212 186 188 233 181 209 209 250 125 191 337 333 329 329 336 340 337 339 333 331 334 337 334 334 339
257 264 255 249 244 252 234 205 234 218 200 200 168 146 146 180 189 240 213 186 204 244 214 218 220 199 239 222 242 206 187 131 241 147 224 244 98 123 341 337 334 337 336 336 343 338 342 339 346 346 343 340 343 348
256 256 242 240 229 231 230 228 219 219 201 165 152 146 150 174 224 222 208 198 219 205 222 210 201 215 212 220 249 34 307 222 138 192 220 51 95 36 344 335 333 349 345 342 339 340 344 347 359 360 354 352 351 350
247 251 234 236 230 228 217 232 210 205 177 156 165 164 206 190 227 211 215 202 245 261 339 310 265 207 213 137 131 119 290 162 255 342 217 79 124 328 335 348 347 347 347 342 337 345 347 355 1 7 6 4 356 354
250 243 232 231 226 221 211 219 215 196 165 164 189 213 215 230 249 235 237 257 247 271 289 319 274 287 343 158 134 122 240 261 204 215 194 174 187 325 350 4 356 353 348 354 8 3 358 1 7 9 13 15 6 3
239 240 232 220 218 219 215 201 180 183 171 195 216 243 239 249 241 249 231 266 250 255 267 230 228 53 280 143 127 219 96 224 247 212 161 167 324 13 12 44 16 29 29 29 24 15 12 11 12 12 15 18 18 8
221 225 233 217 226 213 192 177 172 172 213 208 231 228 245 282 255 266 214 239 224 290 259 203 134 239 353 66 295 179 195 217 164 155 149 98 89 81 69 36 28 22 14 10 15 18 18 18 16 15 15 16 20 16
214 226 225 201 175 170 161 170 170 193 213 213 221 227 215 227 243 296 156 185 275 262 233 182 121 127 232 194 263 219 143 140 138 127 131 123 100 79 47 25 22 24 21 17 19 20 21 21 18 16 15 15 20 19
210 210 230 195 184 156 137 167 178 205 218 221 229 229 213 235 248 241 227 244 285 268 265 126 141 198 226 206 161 157 157 154 153 142 137 123 87 20 354 28 34 20 23 22 20 24 25 25 20 19 18 17 24 18
190 202 194 182 176 124 128 154 175 203 204 221 225 222 211 224 250 224 233 271 274 260 162 203 207 225 219 172 164 163 155 154 148 148 148 137 101 92 89 74 34 28 28 28 26 26 25 26 24 26 25 23 23 24
171 168 166 165 114 106 145 172 185 205 216 216 204 176 203 219 208 201 238 255 249 203 163 212 157 130 125 128 131 148 141 133 116 131 139 145 137 106 78 44 29 35 37 33 31 29 28 27 23 26 25 25 26 29
153 163 154 154 101 131 166 188 180 190 218 264 155 175 183 175 163 187 214 220 222 178 179 166 157 150 141 136 136 135 130 121 112 130 143 144 133 100 63 43 26 36 35 33 30 29 28 28 28 30 30 29 31 31
159 162 130 111 138 179 191 178 201 201 234 158 147 198 174 159 201 190 206 191 182 184 179 168 158 144 138 143 144 135 117 113 145 144 148 132 115 97 75 52 35 35 35 35 26 28 29 30 31 32 33 33 33 32
158 131 148 173 180 195 177 184 204 171 180 183 177 186 191 163 148 77 268 211 165 160 163 162 159 152 151 153 148 141 140 127 143 139 152 145 122 100 65 50 43 44 35 26 26 28 30 30 29 30 30 30 30 28
126 172 170 184 197 201 203 162 188 209 177 179 159 135 269 123 133 191 196 195 168 170 171 172 175 177 164 152 141 149 157 166 159 144 160 179 123 99 63 41 46 46 34 25 26 23 24 24 24 24 24 25 24 23
152 184 189 187 180 198 180 172 188 195 182 146 119 171 225 117 96 121 266 194 178 180 181 185 183 174 162 160 158 165 174 185 186 155 152 153 32 340 352 7 28 32 22 16 17 20 18 18 17 15 14 14 13 15
164 189 198 203 210 175 177 224 137 177 175 133 144 204 158 102 90 313 16 180 191 182 187 188 188 174 172 174 164 160 160 173 200 153 142 149 70 28 16 16 17 16 1 355 2 10 12 10 9 9 9 8 8 9
198 179 176 169 179 208 144 138 168 138 129 151 137 65 88 67 66 345 359 148 183 189 187 188 181 185 182 180 173 168 175 188 168 153 150 134 113 64 28 8 352 341 337 341 348 353 357 359 360 0 0 1 1 1
246 143 129 98 72 137 209 169 158 118 146 144 104 102 99 83 86 101 129 139 157 175 178 166 151 161 159 152 147 151 168 209 197 178 177 158 159 116 352 329 322 324 327 331 335 341 346 351 352 353 354 355 356 354
158 137 105 113 96 76 28 59 93 119 136 133 111 111 100 96 99 116 140 153 161 165 158 160 156 163 161 168 159 177 197 212 232 231 233 206 224 247 300 308 310 313 316 320 327 334 339 343 345 346 348 350 351 354
126 112 87 71 72 68 89 103 110 119 108 96 122 115 111 100 107 114 131 141 153 164 162 161 166 170 180 168 164 177 155 151 177 210 226 216 250 292 301 308 312 310 308 311 320 330 338 343 347 350 351 353 355 356
106 104 104 97 88 97 97 62 63 69 70 91 66 93 94 80 65 54 109 144 156 164 171 186 196 177 175 171 164 141 138 142 152 164 275 299 299 306 312 314 314 310 309 314 323 332 337 344 349 351 354 355 356 356
96 100 94 89 91 75 64 84 70 69 46 57 56 69 72 73 82 56 60 122 162 178 187 183 179 170 167 165 150 135 130 123 70 322 319 325 330 330 329 330 329 327 326 330 336 338 338 343 348 353 356 357 357 356
Wind_Speed_850mb
40 39 38 37 35 36 34 26 24 23 22 22 22 20 19 20 15 17 17 17 18 13 39 31 26 23 18 11 4 12 19 2 6 5 2 3 3 4 5 5 3 7 3 4 4 5 12 2 4 6 10 28 34 45
44 45 43 36 37 38 27 20 15 13 19 21 22 20 20 21 17 20 24 20 23 27 41 65 65 61 55 44 18 7 7 8 9 2 2 3 4 4 3 4 6 4 6 6 13 11 7 9 22 36 36 33 49 55
37 42 44 38 36 34 26 23 18 14 18 21 18 19 22 23 21 23 25 24 24 26 47 28 24 1 9 17 24 13 10 7 6 13 4 3 4 4 3 4 5 2 5 4 6 3 6 41 54 21 34 50 66 69
40 39 40 41 40 37 38 32 24 18 17 19 21 20 21 25 23 22 26 26 27 15 9 16 9 17 17 26 21 30 36 13 20 11 4 3 3 6 4 4 5 6 6 2 11 17 36 18 44 52 69 74 72 79
42 41 39 43 45 47 37 31 33 23 19 19 22 21 23 24 21 19 24 26 28 14 9 29 63 10 16 47 37 22 20 39 29 6 2 5 7 3 3 2 6 3 4 3 8 23 23 50 62 74 71 73 78 81
42 44 40 38 46 46 42 33 32 24 21 23 23 21 21 26 18 10 8 18 24 22 10 8 17 15 6 17 35 35 35 31 22 6 5 8 7 4 3 5 0 4 11 20 14 45 51 65 69 58 71 81 83 87
38 40 35 34 36 42 39 38 27 33 21 26 25 25 24 21 22 16 8 5 4 3 6 11 11 10 17 13 18 26 32 19 6 6 5 4 8 3 5 5 0 15 32 39 31 40 47 43 66 78 77 78 86 89
35 36 30 27 27 32 33 33 29 32 24 24 25 26 23 19 21 27 28 25 20 8 7 6 7 12 10 5 5 9 10 14 10 7 5 5 6 3 5 2 11 29 42 33 47 51 54 62 64 67 75 83 91 89
37 34 27 21 22 24 28 26 29 22 21 24 31 29 21 15 13 13 12 11 15 15 5 6 4 5 18 3 6 9 12 4 5 4 5 4 3 7 4 3 15 29 31 41 54 53 58 57 62 70 74 89 84 88
35 35 28 27 24 22 24 25 25 22 18 34 35 12 10 7 9 10 2 8 9 9 11 7 8 6 6 9 10 4 10 4 5 6 4 4 4 4 4 5 17 29 36 47 51 56 65 67 67 72 71 85 88 93
37 34 32 30 30 30 31 29 23 24 28 36 16 9 11 18 14 6 7 10 9 6 11 13 21 9 8 8 4 13 5 5 2 2 4 3 3 4 4 10 21 23 32 41 46 53 59 58 64 71 80 88 94 101
38 39 35 32 28 24 20 22 31 31 28 24 15 17 17 9 7 6 6 7 9 7 9 8 13 21 9 17 7 6 4 3 6 15 4 3 3 4 5 14 25 26 34 42 49 55 59 59 61 67 74 85 95 105
37 37 34 28 28 22 22 15 27 38 35 23 9 10 9 9 9 9 9 6 6 9 11 9 6 13 14 18 7 4 2 5 13 4 4 3 11 6 12 24 32 26 33 43 45 50 52 61 56 63 72 82 90 99
41 38 36 32 31 29 26 19 53 48 27 10 12 9 8 8 9 9 5 2 7 8 13 22 7 9 7 3 3 1 3 4 3 2 2 1 2 6 17 23 28 34 37 41 51 42 52 56 57 62 66 78 89 95
38 39 38 37 33 31 27 33 54 51 16 9 9 9 13 16 15 10 17 12 27 27 15 12 10 4 3 4 1 1 3 4 4 5 2 12 3 9 16 20 25 35 40 38 39 45 49 54 55 59 66 74 80 93
34 29 41 41 36 36 31 58 63 40 14 10 11 6 16 6 7 13 26 20 18 26 21 15 4 2 4 4 2 6 2 6 6 5 13 6 3 8 12 16 24 30 38 45 51 56 49 54 55 60 61 74 82 87
26 33 31 27 36 32 57 70 32 15 11 9 10 25 24 6 10 18 19 31 19 14 5 6 6 4 2 3 2 6 8 6 16 19 10 7 17 16 12 14 24 32 38 37 44 55 52 55 54 61 69 74 79 86
38 33 25 15 45 74 60 25 17 14 10 14 9 17 23 17 12 12 12 26 10 11 5 4 12 2 5 5 5 5 6 19 15 8 18 19 14 11 11 16 25 28 33 36 36 45 53 62 62 60 63 65 72 89
38 31 18 42 50 44 13 15 12 10 19 9 24 17 17 13 21 22 21 14 17 24 11 4 4 6 6 7 6 18 30 22 20 23 18 12 8 9 13 9 18 25 29 32 40 44 48 56 57 49 56 61 65 73
29 21 40 67 57 12 9 8 14 8 10 12 13 15 18 12 14 24 24 27 15 16 2 4 6 6 7 10 18 24 26 21 27 18 13 11 7 8 13 14 21 23 26 29 37 43 51 58 59 48 50 56 60 63
35 73 70 56 19 9 6 11 12 10 8 12 11 16 8 16 11 15 19 18 6 3 5 6 12 17 21 24 20 23 28 28 22 25 27 26 18 11 13 14 18 26 32 36 41 43 48 55 59 50 46 50 54 61
64 67 45 27 5 6 5 12 6 5 7 5 20 15 6 5 8 16 18 11 7 7 12 27 32 32 29 22 28 39 29 20 18 23 30 31 24 17 18 19 20 27 32 35 39 39 43 49 56 55 54 49 50 58
69 47 14 6 4 7 6 15 7 7 4 10 14 4 5 8 10 15 6 5 5 12 25 35 30 25 25 37 37 27 17 14 21 28 30 26 22 19 19 21 22 26 31 31 32 34 39 45 53 58 61 59 57 63
40 14 8 14 10 8 9 9 8 7 6 5 5 4 4 7 15 4 2 5 13 37 43 38 35 36 35 34 24 19 29 20 24 27 24 18 19 18 16 20 23 25 30 28 26 32 37 43 47 53 57 61 62 59
12 10 10 8 10 9 7 8 7 5 5 7 7 3 3 5 4 6 6 9 39 44 39 37 33 26 38 36 27 32 26 14 15 20 21 10 8 10 10 14 18 22 26 28 33 33 38 39 44 48 51 53 56 58
7 11 13 16 9 7 7 8 9 7 5 5 4 7 5 3 3 1 4 19 35 44 42 42 38 35 38 29 26 22 28 20 10 8 17 8 1 6 7 6 10 18 27 31 32 34 34 38 40 44 48 51 51 51
6 8 11 12 7 9 5 5 12 4 5 5 6 4 5 5 4 2 6 5 36 37 30 25 28 38 32 28 23 27 25 16 8 12 21 10 1 5 6 8 12 16 22 26 30 36 39 40 42 43 44 44 45 47
4 9 8 11 7 3 5 5 3 4 3 4 4 4 5 4 3 8 5 12 36 36 34 30 34 31 37 33 27 29 25 18 19 22 18 13 8 7 11 16 17 18 23 27 31 36 38 41 41 42 42 43 43 43
4 14 14 6 3 4 2 3 4 6 6 7 5 4 6 8 14 16 23 27 21 26 32 31 37 48 44 35 28 21 12 12 18 22 17 15 12 5 5 15 21 25 27 28 31 35 37 39 39 39 38 37 37 38
6 13 6 6 3 2 6 4 5 8 14 19 19 29 31 24 28 24 29 33 36 36 39 42 50 41 30 24 20 18 22 21 21 17 17 16 11 7 9 17 21 22 23 24 27 30 32 34 34 32 31 31 31 31
13 7 6 8 7 16 28 37 33 32 26 26 40 45 29 25 36 28 26 28 30 31 36 40 36 24 19 18 13 9 14 14 11 12 8 6 5 9 13 17 20 21 21 23 26 29 33 34 33 32 31 31 32 33
7 5 9 6 7 15 21 19 16 14 13 18 14 16 18 15 13 14 20 27 33 31 28 25 24 25 23 19 15 12 13 16 12 5 3 9 16 19 19 19 18 18 20 23 26 29 30 31 31 30 29 29 30 31
14 25 21 10 6 6 8 11 9 8 12 9 11 16 16 10 9 7 12 12 20 21 22 24 28 31 27 21 17 17 15 10 3 7 9 10 11 13 14 15 16 17 19 22 23 25 28 29 28 27 26 26 27 28
Wind_Direction_850mb
279 277 278 279 281 284 286 286 285 280 283 280 274 266 255 262 258 249 285 255 257 247 289 267 265 258 231 204 248 315 318 330 326 42 323 318 287 303 347 292 260 164 196 250 230 257 279 164 308 151 254 296 309 306
278 278 277 276 275 278 278 278 292 285 290 283 273 257 252 256 260 249 264 273 254 258 274 295 289 262 248 251 249 257 275 305 275 316 351 303 323 344 145 295 6 159 206 211 191 228 239 241 266 287 288 303 303 297
285 281 271 266 264 268 266 268 279 288 304 301 283 256 252 251 258 250 261 275 258 279 299 295 297 285 260 244 234 224 257 231 33 356 286 255 273 124 276 268 306 311 28 251 1 318 244 304 309 307 303 300 300 298
285 295 275 257 255 259 267 272 268 270 282 288 292 259 249 250 255 242 261 272 263 280 280 285 270 282 230 233 256 267 238 221 323 312 272 268 223 200 252 285 223 228 359 303 270 294 317 274 317 308 304 305 303 302
284 291 291 260 249 249 262 272 277 257 272 272 282 265 243 244 256 254 269 261 259 263 286 293 304 10 246 237 229 255 250 256 279 281 223 245 248 232 311 311 252 204 233 247 278 321 307 291 303 309 306 305 304 308
283 288 289 279 251 248 256 257 262 249 266 277 277 253 239 232 231 251 271 255 253 260 293 295 309 315 355 171 218 243 252 247 238 249 249 269 287 281 276 266 260 53 329 317 288 307 300 297 302 310 307 310 309 308
281 288 291 286 260 243 246 245 261 262 259 282 256 235 228 234 227 218 219 266 222 312 263 293 290 287 296 279 227 230 237 209 215 245 249 251 286 246 243 234 13 336 332 334 333 322 309 313 309 316 312 314 315 311
277 288 287 283 269 242 244 241 249 257 259 265 229 215 216 228 225 248 257 260 256 225 235 274 276 303 12 241 158 157 161 198 218 210 249 235 271 205 258 286 350 343 345 348 334 326 310 311 313 317 322 321 317 315
269 277 282 270 264 247 242 246 252 250 244 231 204 208 212 216 228 248 271 246 245 222 241 244 266 283 333 285 155 166 193 185 203 210 235 149 221 229 215 355 349 351 339 324 332 330 329 327 326 326 329 326 322 322
268 267 269 258 258 256 250 243 246 230 244 204 189 178 208 207 178 179 179 173 212 225 229 245 236 260 343 309 196 240 183 198 196 219 214 220 244 130 163 345 345 338 333 340 333 336 337 334 333 330 330 328 327 330
267 267 259 254 255 248 251 246 237 220 206 187 196 198 172 145 159 199 236 197 187 245 228 237 216 229 247 216 256 212 186 188 233 181 209 209 250 125 191 337 333 329 329 336 340 337 339 333 331 334 337 334 334 339
257 264 255 249 244 252 234 205 234 218 200 200 168 146 146 180 189 240 213 186 204 244 214 218 220 199 239 222 242 206 187 131 241 147 224 244 98 123 341 337 334 337 336 336 343 338 342 339 346 346 343 340 343 348
256 256 242 240 229 231 230 228 219 219 201 165 152 146 150 174 224 222 208 198 219 205 222 210 201 215 212 220 249 34 307 222 138 192 220 51 95 36 344 335 333 349 345 342 339 340 344 347 359 360 354 352 351 350
247 251 234 236 230 228 217 232 210 205 177 156 165 164 206 190 227 211 215 202 245 261 339 310 265 207 213 137 131 119 290 162 255 342 217 79 124 328 335 348 347 347 347 342 337 345 347 355 1 7 6 4 356 354
250 243 232 231 226 221 211 219 215 196 165 164 189 213 215 230 249 235 237 257 247 271 289 319 274 287 343 158 134 122 240 261 204 215 194 174 187 325 350 4 356 353 348 354 8 3 358 1 7 9 13 15 6 3
239 240 232 220 218 219 215 201 180 183 171 195 216 243 239 249 241 249 231 266 250 255 267 230 228 53 280 143 127 219 96 224 247 212 161 167 324 13 12 44 16 29 29 29 24 15 12 11 12 12 15 18 18 8
221 225 233 217 226 213 192 177 172 172 213 208 231 228 245 282 255 266 214 239 224 290 259 203 134 239 353 66 295 179 195 217 164 155 149 98 89 81 69 36 28 22 14 10 15 18 18 18 16 15 15 16 20 16
214 226 225 201 175 170 161 170 170 193 213 213 221 227 215 227 243 296 156 185 275 262 233 182 121 127 232 194 263 219 143 140 138 127 131 123 100 79 47 25 22 24 21 17 19 20 21 21 18 16 15 15 20 19
210 210 230 195 184 156 137 167 178 205 218 221 229 229 213 235 248 241 227 244 285 268 265 126 141 198 226 206 161 157 157 154 153 142 137 123 87 20 354 28 34 20 23 22 20 24 25 25 20 19 18 17 24 18
190 202 194 182 176 124 128 154 175 203 204 221 225 222 211 224 250 224 233 271 274 260 162 203 207 225 219 172 164 163 155 154 148 148 148 137 101 92 89 74 34 28 28 28 26 26 25 26 24 26 25 23 23 24
171 168 166 165 114 106 145 172 185 205 216 216 204 176 203 219 208 201 238 255 249 203 163 212 157 130 125 128 131 148 141 133 116 131 139 145 137 106 78 44 29 35 37 33 31 29 28 27 23 26 25 25 26 29
153 163 154 154 101 131 166 188 180 190 218 264 155 175 183 175 163 187 214 220 222 178 179 166 157 150 141 136 136 135 130 121 112 130 143 144 133 100 63 43 26 36 35 33 30 29 28 28 28 30 30 29 31 31
159 162 130 111 138 179 191 178 201 201 234 158 147 198 174 159 201 190 206 191 182 184 179 168 158 144 138 143 144 135 117 113 145 144 148 132 115 97 75 52 35 35 35 35 26 28 29 30 31 32 33 33 33 32
158 131 148 173 180 195 177 184 204 171 180 183 177 186 191 163 148 77 268 211 165 160 163 162 159 152 151 153 148 141 140 127 143 139 152 145 122 100 65 50 43 44 35 26 26 28 30 30 29 30 30 30 30 28
126 172 170 184 197 201 203 162 188 209 177 179 159 135 269 123 133 191 196 195 168 170 171 172 175 177 164 152 141 149 157 166 159 144 160 179 123 99 63 41 46 46 34 25 26 23 24 24 24 24 24 25 24 23
152 184 189 187 180 198 180 172 188 195 182 146 119 171 225 117 96 121 266 194 178 180 181 185 183 174 162 160 158 165 174 185 186 155 152 153 32 340 352 7 28 32 22 16 17 20 18 18 17 15 14 14 13 15
164 189 198 203 210 175 177 224 137 177 175 133 144 204 158 102 90 313 16 180 191 182 187 188 188 174 172 174 164 160 160 173 200 153 142 149 70 28 16 16 17 16 1 355 2 10 12 10 9 9 9 8 8 9
198 179 176 169 179 208 144 138 168 138 129 151 137 65 88 67 66 345 359 148 183 189 187 188 181 185 182 180 173 168 175 188 168 153 150 134 113 64 28 8 352 341 337 341 348 353 357 359 360 0 0 1 1 1
246 143 129 98 72 137 209 169 158 118 146 144 104 102 99 83 86 101 129 139 157 175 178 166 151 161 159 152 147 151 168 209 197 178 177 158 159 116 352 329 322 324 327 331 335 341 346 351 352 353 354 355 356 354
158 137 105 113 96 76 28 59 93 119 136 133 111 111 100 96 99 116 140 153 161 165 158 160 156 163 161 168 159 177 197 212 232 231 233 206 224 247 300 308 310 313 316 320 327 334 339 343 345 346 348 350 351 354
126 112 87 71 72 68 89 103 110 119 108 96 122 115 111 100 107 114 131 141 153 164 162 161 166 170 180 168 164 177 155 151 177 210 226 216 250 292 301 308 312 310 308 311 320 330 338 343 347 350 351 353 355 356
106 104 104 97 88 97 97 62 63 69 70 91 66 93 94 80 65 54 109 144 156 164 171 186 196 177 175 171 164 141 138 142 152 164 275 299 299 306 312 314 314 310 309 314 323 332 337 344 349 351 354 355 356 356
96 100 94 89 91 75 64 84 70 69 46 57 56 69 72 73 82 56 60 122 162 178 187 183 179 170 167 165 150 135 130 123 70 322 319 325 330 330 329 330 329 327 326 330 336 338 338 343 348 353 356 357 357 356